No particular awareness of the weather is required.    There are no Weather-warnings


Meteo18 Weather Cam more information Meteo18 Weather Cam


Thunder radar more information blitzortung!


Rain radar more information rain snow radar


Visit our other weather sites:

Template documentation
and downloads

And another site



Weather Underground History page Text

Daily Summary for March 23, 2016 Units:  Metric    English   Both
« Previous Day
Next Day »
Daily Weekly Monthly Yearly Custom
  High: Low: Average:
Temperature: 10.1 °C 3.2 °C 6.6 °C
Dew Point: 5.8 °C 1.2 °C 3.2 °C
Humidity: 91 % 70 % 79 %
Wind Speed: 16.1 km/h 0.0 km/h 5.5 km/h
Wind Gust: 25.7 km/h - -
Wind:- - ENE
Pressure: 1014.8 hPa 1009.7 hPa -
Precipitation: 0.0 mm    
Historical Graphs
 
 
Tabular Data for March 23, 2016
Time Temperature Dew Point Pressure Wind Wind Speed Wind Gust Humidity Rainfall Rate (Hourly)
00:02 5.2 °C 1.3 °C 1010.0 hPa Calm   11.3 km/h 76 % 0.0 mm
00:07 5.3 °C 1.4 °C 1010.0 hPa East 8.0 km/h 12.9 km/h 76 % 0.0 mm
00:12 5.3 °C 1.2 °C 1010.0 hPa Calm   12.9 km/h 75 % 0.0 mm
00:22 5.2 °C 1.3 °C 1010.0 hPa East 6.4 km/h 12.9 km/h 76 % 0.0 mm
00:27 5.2 °C 1.3 °C 1010.0 hPa NE 4.8 km/h 12.9 km/h 76 % 0.0 mm
00:32 5.0 °C 1.3 °C 1010.0 hPa ENE 4.8 km/h 16.1 km/h 77 % 0.0 mm
00:37 4.9 °C 1.2 °C 1010.0 hPa NE 6.4 km/h 16.1 km/h 77 % 0.0 mm
00:42 4.9 °C 1.2 °C 1010.0 hPa NE 3.2 km/h 16.1 km/h 77 % 0.0 mm
00:47 4.8 °C 1.3 °C 1010.0 hPa SSE 1.6 km/h 9.7 km/h 78 % 0.0 mm
00:52 4.7 °C 1.2 °C 1010.0 hPa SE 1.6 km/h 9.7 km/h 78 % 0.0 mm
00:57 4.7 °C 1.4 °C 1010.0 hPa East 1.6 km/h 11.3 km/h 79 % 0.0 mm
01:07 4.6 °C 1.3 °C 1010.0 hPa NE 6.4 km/h 12.9 km/h 79 % 0.0 mm
01:12 4.7 °C 1.4 °C 1010.0 hPa Calm   12.9 km/h 79 % 0.0 mm
01:17 4.7 °C 1.4 °C 1010.0 hPa ENE 3.2 km/h 14.5 km/h 79 % 0.0 mm
01:22 4.7 °C 1.2 °C 1010.0 hPa Calm   14.5 km/h 78 % 0.0 mm
01:27 4.6 °C 1.3 °C 1010.0 hPa NE 9.7 km/h 11.3 km/h 79 % 0.0 mm
01:32 4.7 °C 1.4 °C 1010.0 hPa East 3.2 km/h 11.3 km/h 79 % 0.0 mm
01:37 4.7 °C 1.4 °C 1010.0 hPa ESE 1.6 km/h 12.9 km/h 79 % 0.0 mm
01:42 4.7 °C 1.4 °C 1010.0 hPa SE 3.2 km/h 12.9 km/h 79 % 0.0 mm
01:47 4.7 °C 1.4 °C 1010.0 hPa NNE 8.0 km/h 12.9 km/h 79 % 0.0 mm
01:52 4.7 °C 1.4 °C 1010.0 hPa East 3.2 km/h 12.9 km/h 79 % 0.0 mm
01:57 4.7 °C 1.4 °C 1009.7 hPa ESE 4.8 km/h 11.3 km/h 79 % 0.0 mm
02:07 4.6 °C 1.4 °C 1009.7 hPa ENE 4.8 km/h 16.1 km/h 80 % 0.0 mm
02:12 4.6 °C 1.4 °C 1009.7 hPa ESE 4.8 km/h 16.1 km/h 80 % 0.0 mm
02:17 4.5 °C 1.4 °C 1009.7 hPa ENE 9.7 km/h 16.1 km/h 80 % 0.0 mm
02:22 4.4 °C 1.4 °C 1009.7 hPa SE 1.6 km/h 16.1 km/h 81 % 0.0 mm
02:27 4.4 °C 1.4 °C 1009.7 hPa NE 4.8 km/h 16.1 km/h 81 % 0.0 mm
02:32 4.4 °C 1.4 °C 1009.7 hPa East 4.8 km/h 16.1 km/h 81 % 0.0 mm
02:37 4.4 °C 1.4 °C 1009.7 hPa NNE 9.7 km/h 14.5 km/h 81 % 0.0 mm
02:42 4.4 °C 1.4 °C 1009.7 hPa ENE 4.8 km/h 14.5 km/h 81 % 0.0 mm
02:47 4.4 °C 1.6 °C 1009.7 hPa East 3.2 km/h 14.5 km/h 82 % 0.0 mm
02:52 4.4 °C 1.6 °C 1009.7 hPa ENE 4.8 km/h 14.5 km/h 82 % 0.0 mm
02:57 4.4 °C 1.6 °C 1009.7 hPa ESE 1.6 km/h 12.9 km/h 82 % 0.0 mm
03:02 4.4 °C 1.6 °C 1009.7 hPa Calm   12.9 km/h 82 % 0.0 mm
03:07 4.4 °C 1.6 °C 1009.7 hPa East 1.6 km/h 16.1 km/h 82 % 0.0 mm
03:12 4.3 °C 1.7 °C 1009.7 hPa ENE 9.7 km/h 16.1 km/h 83 % 0.0 mm
03:17 4.3 °C 1.7 °C 1009.7 hPa East 1.6 km/h 14.5 km/h 83 % 0.0 mm
03:22 4.5 °C 1.7 °C 1009.7 hPa ENE 11.3 km/h 14.5 km/h 82 % 0.0 mm
03:27 4.5 °C 1.7 °C 1009.7 hPa NE 6.4 km/h 19.3 km/h 82 % 0.0 mm
03:32 4.6 °C 1.8 °C 1009.7 hPa NE 4.8 km/h 19.3 km/h 82 % 0.0 mm
03:37 4.4 °C 1.8 °C 1009.7 hPa East 3.2 km/h 19.3 km/h 83 % 0.0 mm
03:42 4.4 °C 1.8 °C 1009.7 hPa Calm   19.3 km/h 83 % 0.0 mm
03:52 4.2 °C 1.6 °C 1009.7 hPa NE 6.4 km/h 12.9 km/h 83 % 0.0 mm
03:57 4.1 °C 1.6 °C 1009.7 hPa NE 9.7 km/h 14.5 km/h 84 % 0.0 mm
04:02 4.1 °C 1.6 °C 1009.7 hPa ENE 8.0 km/h 14.5 km/h 84 % 0.0 mm
04:07 4.0 °C 1.7 °C 1009.7 hPa NE 8.0 km/h 12.9 km/h 85 % 0.0 mm
04:12 4.0 °C 1.7 °C 1009.7 hPa East 3.2 km/h 12.9 km/h 85 % 0.0 mm
04:27 3.9 °C 1.8 °C 1009.7 hPa NE 8.0 km/h 12.9 km/h 86 % 0.0 mm
04:32 3.8 °C 1.7 °C 1009.7 hPa ENE 1.6 km/h 12.9 km/h 86 % 0.0 mm
04:37 3.8 °C 1.7 °C 1009.7 hPa NE 3.2 km/h 16.1 km/h 86 % 0.0 mm
04:42 3.8 °C 1.7 °C 1009.7 hPa NE 8.0 km/h 16.1 km/h 86 % 0.0 mm
04:47 3.7 °C 1.7 °C 1009.7 hPa SE 1.6 km/h 16.1 km/h 87 % 0.0 mm
04:52 3.7 °C 1.7 °C 1009.7 hPa ENE 4.8 km/h 16.1 km/h 87 % 0.0 mm
05:02 3.5 °C 1.5 °C 1009.7 hPa Calm   12.9 km/h 87 % 0.0 mm
05:07 3.4 °C 1.6 °C 1010.0 hPa SSE 3.2 km/h 11.3 km/h 88 % 0.0 mm
05:12 3.4 °C 1.6 °C 1010.0 hPa Calm   11.3 km/h 88 % 0.0 mm
05:17 3.3 °C 1.5 °C 1010.0 hPa Calm   11.3 km/h 88 % 0.0 mm
05:22 3.2 °C 1.4 °C 1010.0 hPa East 1.6 km/h 11.3 km/h 88 % 0.0 mm
05:32 3.2 °C 1.6 °C 1010.0 hPa Calm   9.7 km/h 89 % 0.0 mm
05:37 3.3 °C 1.8 °C 1010.0 hPa NE 6.4 km/h 9.7 km/h 90 % 0.0 mm
05:42 3.3 °C 1.8 °C 1010.0 hPa ENE 3.2 km/h 9.7 km/h 90 % 0.0 mm
05:47 3.4 °C 1.9 °C 1010.0 hPa SSE 3.2 km/h 12.9 km/h 90 % 0.0 mm
05:52 3.5 °C 1.9 °C 1010.0 hPa Calm   12.9 km/h 89 % 0.0 mm
06:02 3.5 °C 1.9 °C 1010.0 hPa ENE 3.2 km/h 14.5 km/h 89 % 0.0 mm
06:07 3.5 °C 2.0 °C 1010.0 hPa NE 11.3 km/h 14.5 km/h 90 % 0.0 mm
06:12 3.4 °C 1.9 °C 1010.4 hPa East 1.6 km/h 14.5 km/h 90 % 0.0 mm
06:17 3.4 °C 1.9 °C 1010.4 hPa ENE 1.6 km/h 12.9 km/h 90 % 0.0 mm
06:22 3.4 °C 1.9 °C 1010.4 hPa Calm   12.9 km/h 90 % 0.0 mm
06:32 3.3 °C 1.8 °C 1010.4 hPa NE 3.2 km/h 17.7 km/h 90 % 0.0 mm
06:42 3.3 °C 2.0 °C 1010.4 hPa ENE 9.7 km/h 14.5 km/h 91 % 0.0 mm
06:47 3.3 °C 2.0 °C 1010.4 hPa East 3.2 km/h 12.9 km/h 91 % 0.0 mm
06:52 3.3 °C 2.0 °C 1010.7 hPa SE 4.8 km/h 12.9 km/h 91 % 0.0 mm
06:57 3.3 °C 2.0 °C 1010.7 hPa ENE 3.2 km/h 14.5 km/h 91 % 0.0 mm
07:02 3.4 °C 2.1 °C 1010.7 hPa ENE 14.5 km/h 14.5 km/h 91 % 0.0 mm
07:12 3.4 °C 1.9 °C 1011.1 hPa ENE 3.2 km/h 19.3 km/h 90 % 0.0 mm
07:17 3.3 °C 2.0 °C 1011.1 hPa NE 3.2 km/h 19.3 km/h 91 % 0.0 mm
07:22 3.4 °C 2.1 °C 1011.1 hPa NE 1.6 km/h 16.1 km/h 91 % 0.0 mm
07:27 3.4 °C 2.1 °C 1011.1 hPa NNE 3.2 km/h 16.1 km/h 91 % 0.0 mm
07:32 3.5 °C 2.2 °C 1011.1 hPa East 1.6 km/h 12.9 km/h 91 % 0.0 mm
07:37 3.5 °C 2.2 °C 1011.1 hPa NE 8.0 km/h 12.9 km/h 91 % 0.0 mm
07:42 3.6 °C 2.3 °C 1011.1 hPa ENE 3.2 km/h 12.9 km/h 91 % 0.0 mm
07:47 3.6 °C 2.3 °C 1011.4 hPa NE 1.6 km/h 12.9 km/h 91 % 0.0 mm
07:52 3.7 °C 2.4 °C 1011.4 hPa ENE 1.6 km/h 9.7 km/h 91 % 0.0 mm
07:57 3.8 °C 2.5 °C 1011.4 hPa NE 1.6 km/h 9.7 km/h 91 % 0.0 mm
08:02 3.8 °C 2.5 °C 1011.4 hPa ENE 3.2 km/h 9.7 km/h 91 % 0.0 mm
08:07 3.9 °C 2.6 °C 1011.4 hPa ENE 8.0 km/h 9.7 km/h 91 % 0.0 mm
08:12 4.1 °C 2.8 °C 1011.4 hPa ESE 4.8 km/h 8.0 km/h 91 % 0.0 mm
08:17 4.2 °C 2.7 °C 1011.1 hPa East 4.8 km/h 8.0 km/h 90 % 0.0 mm
08:22 4.4 °C 2.9 °C 1011.1 hPa ENE 3.2 km/h 16.1 km/h 90 % 0.0 mm
08:32 4.7 °C 3.0 °C 1011.4 hPa NE 3.2 km/h 16.1 km/h 89 % 0.0 mm
08:37 5.0 °C 3.3 °C 1011.4 hPa NE 12.9 km/h 16.1 km/h 89 % 0.0 mm
08:42 5.3 °C 3.5 °C 1011.4 hPa ENE 11.3 km/h 11.3 km/h 88 % 0.0 mm
08:47 5.5 °C 3.5 °C 1011.4 hPa East 3.2 km/h 11.3 km/h 87 % 0.0 mm
08:52 5.7 °C 3.7 °C 1011.4 hPa SE 1.6 km/h 16.1 km/h 87 % 0.0 mm
08:57 5.8 °C 3.8 °C 1011.4 hPa East 3.2 km/h 16.1 km/h 87 % 0.0 mm
09:02 5.9 °C 3.7 °C 1011.7 hPa ENE 3.2 km/h 19.3 km/h 86 % 0.0 mm
09:12 5.8 °C 3.6 °C 1011.4 hPa North 11.3 km/h 22.5 km/h 86 % 0.0 mm
09:17 5.8 °C 3.6 °C 1011.7 hPa ESE 1.6 km/h 22.5 km/h 86 % 0.0 mm
09:22 6.0 °C 3.8 °C 1011.7 hPa North 9.7 km/h 19.3 km/h 86 % 0.0 mm
09:27 6.3 °C 4.1 °C 1011.7 hPa South 3.2 km/h 19.3 km/h 86 % 0.0 mm
09:32 6.7 °C 4.5 °C 1011.7 hPa North 1.6 km/h 22.5 km/h 86 % 0.0 mm
09:37 7.0 °C 4.5 °C 1011.7 hPa ENE 14.5 km/h 22.5 km/h 84 % 0.0 mm
09:42 6.9 °C 4.4 °C 1011.7 hPa NW 1.6 km/h 19.3 km/h 84 % 0.0 mm
09:47 6.9 °C 4.4 °C 1011.7 hPa ENE 3.2 km/h 19.3 km/h 84 % 0.0 mm
09:57 6.8 °C 4.5 °C 1012.1 hPa East 6.4 km/h 14.5 km/h 85 % 0.0 mm
10:02 6.7 °C 4.4 °C 1012.1 hPa NE 1.6 km/h 14.5 km/h 85 % 0.0 mm
10:07 6.8 °C 4.5 °C 1012.1 hPa SSE 4.8 km/h 22.5 km/h 85 % 0.0 mm
10:12 6.8 °C 4.5 °C 1012.1 hPa NE 8.0 km/h 22.5 km/h 85 % 0.0 mm
10:17 6.8 °C 4.5 °C 1012.1 hPa NE 14.5 km/h 17.7 km/h 85 % 0.0 mm
10:22 7.1 °C 4.7 °C 1012.1 hPa East 9.7 km/h 17.7 km/h 85 % 0.0 mm
10:27 7.3 °C 4.6 °C 1012.1 hPa NE 8.0 km/h 19.3 km/h 83 % 0.0 mm
10:32 7.3 °C 4.6 °C 1012.1 hPa ENE 6.4 km/h 19.3 km/h 83 % 0.0 mm
10:37 7.6 °C 4.9 °C 1012.1 hPa NE 9.7 km/h 19.3 km/h 83 % 0.0 mm
10:42 7.8 °C 4.9 °C 1012.1 hPa NE 16.1 km/h 19.3 km/h 82 % 0.0 mm
10:47 7.9 °C 5.0 °C 1012.1 hPa NE 6.4 km/h 20.9 km/h 82 % 0.0 mm
10:52 8.0 °C 5.1 °C 1012.1 hPa ENE 14.5 km/h 20.9 km/h 82 % 0.0 mm
10:57 8.2 °C 5.1 °C 1012.1 hPa NNE 11.3 km/h 20.9 km/h 81 % 0.0 mm
11:07 8.8 °C 5.4 °C 1012.1 hPa ENE 12.9 km/h 22.5 km/h 79 % 0.0 mm
11:12 8.8 °C 5.4 °C 1012.1 hPa ENE 12.9 km/h 22.5 km/h 79 % 0.0 mm
11:17 8.7 °C 4.7 °C 1012.4 hPa NE 8.0 km/h 22.5 km/h 76 % 0.0 mm
11:22 8.6 °C 5.2 °C 1012.4 hPa NE 11.3 km/h 22.5 km/h 79 % 0.0 mm
11:27 8.8 °C 5.4 °C 1012.1 hPa NE 9.7 km/h 25.7 km/h 79 % 0.0 mm
11:32 9.2 °C 5.6 °C 1012.1 hPa ENE 14.5 km/h 25.7 km/h 78 % 0.0 mm
11:37 9.4 °C 5.6 °C 1012.1 hPa NNE 16.1 km/h 22.5 km/h 77 % 0.0 mm
11:42 9.6 °C 5.8 °C 1012.1 hPa ESE 4.8 km/h 22.5 km/h 77 % 0.0 mm
11:47 9.6 °C 5.6 °C 1012.1 hPa SE 1.6 km/h 22.5 km/h 76 % 0.0 mm
11:52 10.0 °C 5.6 °C 1012.4 hPa NNE 8.0 km/h 22.5 km/h 74 % 0.0 mm
12:02 10.1 °C 5.5 °C 1012.1 hPa SSE 3.2 km/h 22.5 km/h 73 % 0.0 mm
12:07 9.9 °C 5.7 °C 1012.1 hPa NE 4.8 km/h 19.3 km/h 75 % 0.0 mm
12:12 9.5 °C 4.9 °C 1012.1 hPa ENE 9.7 km/h 19.3 km/h 73 % 0.0 mm
12:17 9.6 °C 5.6 °C 1012.1 hPa NE 12.9 km/h 17.7 km/h 76 % 0.0 mm
12:22 9.8 °C 5.4 °C 1012.4 hPa NE 3.2 km/h 20.9 km/h 74 % 0.0 mm
12:27 9.8 °C 5.4 °C 1012.4 hPa NE 6.4 km/h 20.9 km/h 74 % 0.0 mm
12:32 10.0 °C 5.2 °C 1012.4 hPa NE 9.7 km/h 24.1 km/h 72 % 0.0 mm
12:37 10.1 °C 5.5 °C 1012.4 hPa NE 6.4 km/h 24.1 km/h 73 % 0.0 mm
12:42 10.1 °C 5.1 °C 1012.4 hPa South 8.0 km/h 20.9 km/h 71 % 0.0 mm
12:47 9.8 °C 4.6 °C 1012.4 hPa NNE 9.7 km/h 20.9 km/h 70 % 0.0 mm
12:52 9.7 °C 4.7 °C 1012.4 hPa East 4.8 km/h 24.1 km/h 71 % 0.0 mm
12:57 9.7 °C 4.9 °C 1012.4 hPa ENE 3.2 km/h 16.1 km/h 72 % 0.0 mm
13:02 9.6 °C 4.8 °C 1012.4 hPa ESE 4.8 km/h 16.1 km/h 72 % 0.0 mm
13:07 9.6 °C 5.0 °C 1012.4 hPa NE 8.0 km/h 19.3 km/h 73 % 0.0 mm
13:12 9.4 °C 4.8 °C 1012.4 hPa NNW 9.7 km/h 19.3 km/h 73 % 0.0 mm
13:17 9.3 °C 4.9 °C 1012.4 hPa SE 4.8 km/h 19.3 km/h 74 % 0.0 mm
13:22 9.3 °C 4.7 °C 1012.4 hPa ENE 3.2 km/h 19.3 km/h 73 % 0.0 mm
13:37 9.0 °C 4.2 °C 1012.4 hPa East 11.3 km/h 20.9 km/h 72 % 0.0 mm
13:42 8.9 °C 4.1 °C 1012.4 hPa ESE 6.4 km/h 20.9 km/h 72 % 0.0 mm
13:47 8.9 °C 4.3 °C 1012.4 hPa NE 8.0 km/h 20.9 km/h 73 % 0.0 mm
13:52 8.9 °C 3.9 °C 1012.4 hPa ENE 12.9 km/h 20.9 km/h 71 % 0.0 mm
13:57 8.9 °C 4.3 °C 1012.4 hPa East 4.8 km/h 20.9 km/h 73 % 0.0 mm
14:02 8.8 °C 4.0 °C 1012.4 hPa ENE 8.0 km/h 20.9 km/h 72 % 0.0 mm
14:07 8.8 °C 4.0 °C 1012.4 hPa NNE 12.9 km/h 20.9 km/h 72 % 0.0 mm
14:12 8.7 °C 4.1 °C 1012.4 hPa NE 16.1 km/h 20.9 km/h 73 % 0.0 mm
14:17 8.6 °C 4.0 °C 1012.4 hPa ENE 6.4 km/h 20.9 km/h 73 % 0.0 mm
14:22 8.6 °C 4.0 °C 1012.4 hPa ENE 16.1 km/h 20.9 km/h 73 % 0.0 mm
14:27 8.7 °C 3.9 °C 1012.4 hPa NE 9.7 km/h 20.9 km/h 72 % 0.0 mm
14:32 8.7 °C 4.1 °C 1012.4 hPa South 3.2 km/h 20.9 km/h 73 % 0.0 mm
14:37 8.8 °C 3.8 °C 1012.4 hPa NE 3.2 km/h 20.9 km/h 71 % 0.0 mm
14:42 8.8 °C 3.8 °C 1012.4 hPa NE 6.4 km/h 20.9 km/h 71 % 0.0 mm
14:52 8.9 °C 3.9 °C 1012.4 hPa East 11.3 km/h 19.3 km/h 71 % 0.0 mm
14:57 8.9 °C 3.9 °C 1012.4 hPa ENE 6.4 km/h 19.3 km/h 71 % 0.0 mm
15:02 8.8 °C 4.0 °C 1012.4 hPa ENE 1.6 km/h 19.3 km/h 72 % 0.0 mm
15:07 8.8 °C 3.8 °C 1012.4 hPa East 4.8 km/h 22.5 km/h 71 % 0.0 mm
15:12 8.8 °C 3.6 °C 1012.4 hPa SSE 6.4 km/h 22.5 km/h 70 % 0.0 mm
15:17 8.7 °C 3.9 °C 1012.4 hPa NNE 12.9 km/h 19.3 km/h 72 % 0.0 mm
15:22 8.6 °C 3.8 °C 1012.4 hPa East 8.0 km/h 19.3 km/h 72 % 0.0 mm
15:27 8.6 °C 3.8 °C 1012.4 hPa NE 3.2 km/h 19.3 km/h 72 % 0.0 mm
15:32 8.5 °C 3.9 °C 1012.4 hPa NE 6.4 km/h 19.3 km/h 73 % 0.0 mm
15:37 8.5 °C 3.9 °C 1012.4 hPa NNE 14.5 km/h 19.3 km/h 73 % 0.0 mm
15:42 8.6 °C 4.0 °C 1012.4 hPa NE 6.4 km/h 19.3 km/h 73 % 0.0 mm
15:47 8.6 °C 3.6 °C 1012.4 hPa ENE 11.3 km/h 19.3 km/h 71 % 0.0 mm
15:52 8.7 °C 3.9 °C 1012.8 hPa NE 16.1 km/h 19.3 km/h 72 % 0.0 mm
15:57 8.6 °C 3.4 °C 1012.4 hPa ENE 6.4 km/h 24.1 km/h 70 % 0.0 mm
16:02 8.7 °C 3.7 °C 1012.4 hPa ESE 6.4 km/h 24.1 km/h 71 % 0.0 mm
16:07 8.7 °C 3.7 °C 1012.8 hPa NE 3.2 km/h 24.1 km/h 71 % 0.0 mm
16:12 8.7 °C 3.5 °C 1012.8 hPa NE 6.4 km/h 24.1 km/h 70 % 0.0 mm
16:17 8.7 °C 3.9 °C 1012.8 hPa NE 4.8 km/h 16.1 km/h 72 % 0.0 mm
16:22 8.8 °C 4.0 °C 1012.8 hPa NE 4.8 km/h 16.1 km/h 72 % 0.0 mm
16:27 8.8 °C 4.0 °C 1012.8 hPa ENE 9.7 km/h 11.3 km/h 72 % 0.0 mm
16:32 8.7 °C 3.9 °C 1012.8 hPa NE 3.2 km/h 11.3 km/h 72 % 0.0 mm
16:37 8.7 °C 3.9 °C 1012.8 hPa ENE 8.0 km/h 19.3 km/h 72 % 0.0 mm
16:42 8.6 °C 4.2 °C 1012.8 hPa SE 6.4 km/h 19.3 km/h 74 % 0.0 mm
16:47 8.5 °C 3.9 °C 1012.8 hPa NE 9.7 km/h 19.3 km/h 73 % 0.0 mm
16:52 8.4 °C 3.8 °C 1012.8 hPa ESE 4.8 km/h 19.3 km/h 73 % 0.0 mm
16:57 8.4 °C 4.0 °C 1012.8 hPa ENE 12.9 km/h 16.1 km/h 74 % 0.0 mm
17:02 8.4 °C 4.0 °C 1012.8 hPa ENE 8.0 km/h 16.1 km/h 74 % 0.0 mm
17:07 8.3 °C 3.9 °C 1012.8 hPa East 9.7 km/h 17.7 km/h 74 % 0.0 mm
17:12 8.3 °C 3.9 °C 1012.8 hPa ENE 9.7 km/h 17.7 km/h 74 % 0.0 mm
17:17 8.3 °C 3.9 °C 1012.8 hPa North 6.4 km/h 17.7 km/h 74 % 0.0 mm
17:22 8.4 °C 4.2 °C 1012.8 hPa ENE 9.7 km/h 17.7 km/h 75 % 0.0 mm
17:27 8.4 °C 4.0 °C 1012.8 hPa NE 6.4 km/h 17.7 km/h 74 % 0.0 mm
17:32 8.3 °C 4.1 °C 1012.8 hPa ENE 6.4 km/h 17.7 km/h 75 % 0.0 mm
17:37 8.3 °C 3.9 °C 1012.8 hPa NE 4.8 km/h 12.9 km/h 74 % 0.0 mm
17:42 8.2 °C 4.0 °C 1013.1 hPa ENE 1.6 km/h 12.9 km/h 75 % 0.0 mm
17:47 8.2 °C 4.2 °C 1013.1 hPa NE 1.6 km/h 12.9 km/h 76 % 0.0 mm
17:52 8.2 °C 3.8 °C 1013.1 hPa NE 4.8 km/h 12.9 km/h 74 % 0.0 mm
17:57 8.2 °C 4.0 °C 1013.1 hPa NE 11.3 km/h 12.9 km/h 75 % 0.0 mm
18:02 8.1 °C 3.7 °C 1013.1 hPa NNE 9.7 km/h 12.9 km/h 74 % 0.0 mm
18:07 8.1 °C 3.7 °C 1013.1 hPa SW 3.2 km/h 12.9 km/h 74 % 0.0 mm
18:12 8.1 °C 3.7 °C 1013.1 hPa NE 6.4 km/h 12.9 km/h 74 % 0.0 mm
18:17 8.0 °C 3.6 °C 1013.1 hPa East 3.2 km/h 12.9 km/h 74 % 0.0 mm
18:22 8.1 °C 3.7 °C 1013.1 hPa ENE 3.2 km/h 14.5 km/h 74 % 0.0 mm
18:27 8.0 °C 3.8 °C 1013.1 hPa East 3.2 km/h 14.5 km/h 75 % 0.0 mm
18:32 7.9 °C 3.6 °C 1013.1 hPa NE 9.7 km/h 14.5 km/h 74 % 0.0 mm
18:37 7.9 °C 3.2 °C 1013.4 hPa ENE 8.0 km/h 14.5 km/h 72 % 0.0 mm
18:42 7.9 °C 3.2 °C 1013.4 hPa NNW 4.8 km/h 16.1 km/h 72 % 0.0 mm
18:47 7.9 °C 3.4 °C 1013.4 hPa NE 9.7 km/h 16.1 km/h 73 % 0.0 mm
18:52 7.8 °C 3.3 °C 1013.4 hPa ESE 6.4 km/h 14.5 km/h 73 % 0.0 mm
18:57 7.9 °C 3.4 °C 1013.4 hPa ENE 4.8 km/h 14.5 km/h 73 % 0.0 mm
19:02 7.8 °C 3.3 °C 1013.8 hPa ENE 3.2 km/h 14.5 km/h 73 % 0.0 mm
19:07 7.8 °C 3.1 °C 1013.8 hPa NE 11.3 km/h 16.1 km/h 72 % 0.0 mm
19:12 7.8 °C 3.1 °C 1013.8 hPa ENE 4.8 km/h 16.1 km/h 72 % 0.0 mm
19:17 7.7 °C 3.2 °C 1013.8 hPa ESE 3.2 km/h 14.5 km/h 73 % 0.0 mm
19:22 7.7 °C 3.2 °C 1013.8 hPa SE 6.4 km/h 14.5 km/h 73 % 0.0 mm
19:27 7.7 °C 3.4 °C 1013.8 hPa East 4.8 km/h 12.9 km/h 74 % 0.0 mm
19:32 7.6 °C 3.3 °C 1013.8 hPa NNE 12.9 km/h 12.9 km/h 74 % 0.0 mm
19:37 7.7 °C 3.4 °C 1013.8 hPa ENE 4.8 km/h 14.5 km/h 74 % 0.0 mm
19:42 7.6 °C 3.3 °C 1013.8 hPa East 3.2 km/h 14.5 km/h 74 % 0.0 mm
19:47 7.5 °C 3.4 °C 1013.8 hPa ENE 1.6 km/h 14.5 km/h 75 % 0.0 mm
19:52 7.4 °C 3.4 °C 1014.1 hPa ENE 4.8 km/h 14.5 km/h 76 % 0.0 mm
19:57 7.3 °C 3.3 °C 1014.1 hPa NE 4.8 km/h 9.7 km/h 76 % 0.0 mm
20:02 7.4 °C 3.4 °C 1014.1 hPa ENE 3.2 km/h 9.7 km/h 76 % 0.0 mm
20:07 7.3 °C 3.3 °C 1014.1 hPa NNE 4.8 km/h 9.7 km/h 76 % 0.0 mm
20:12 7.4 °C 3.4 °C 1014.1 hPa East 4.8 km/h 9.7 km/h 76 % 0.0 mm
20:17 7.4 °C 3.4 °C 1014.1 hPa NE 4.8 km/h 12.9 km/h 76 % 0.0 mm
20:22 7.4 °C 3.4 °C 1014.4 hPa NE 12.9 km/h 12.9 km/h 76 % 0.0 mm
20:27 7.4 °C 3.6 °C 1014.4 hPa NNE 6.4 km/h 12.9 km/h 77 % 0.0 mm
20:32 7.3 °C 3.5 °C 1014.4 hPa ENE 1.6 km/h 12.9 km/h 77 % 0.0 mm
20:37 7.3 °C 3.5 °C 1014.4 hPa ENE 4.8 km/h 12.9 km/h 77 % 0.0 mm
20:42 7.3 °C 3.3 °C 1014.4 hPa NE 3.2 km/h 12.9 km/h 76 % 0.0 mm
20:47 7.3 °C 3.3 °C 1014.4 hPa NNE 4.8 km/h 9.7 km/h 76 % 0.0 mm
20:52 7.3 °C 3.3 °C 1014.4 hPa SE 3.2 km/h 9.7 km/h 76 % 0.0 mm
20:57 7.2 °C 3.4 °C 1014.4 hPa NE 1.6 km/h 12.9 km/h 77 % 0.0 mm
21:02 7.1 °C 3.3 °C 1014.4 hPa NE 6.4 km/h 12.9 km/h 77 % 0.0 mm
21:12 7.1 °C 3.5 °C 1014.4 hPa NE 6.4 km/h 9.7 km/h 78 % 0.0 mm
21:17 7.1 °C 3.3 °C 1014.4 hPa ENE 3.2 km/h 9.7 km/h 77 % 0.0 mm
21:22 7.1 °C 3.5 °C 1014.4 hPa ENE 3.2 km/h 9.7 km/h 78 % 0.0 mm
21:32 7.0 °C 3.4 °C 1014.8 hPa NE 6.4 km/h 9.7 km/h 78 % 0.0 mm
21:37 7.1 °C 3.5 °C 1014.8 hPa NNE 3.2 km/h 9.7 km/h 78 % 0.0 mm
21:42 6.9 °C 3.5 °C 1014.8 hPa NE 1.6 km/h 9.7 km/h 79 % 0.0 mm
21:47 6.9 °C 3.3 °C 1014.8 hPa NNE 6.4 km/h 9.7 km/h 78 % 0.0 mm
21:52 6.9 °C 3.3 °C 1014.8 hPa NE 1.6 km/h 9.7 km/h 78 % 0.0 mm
21:57 6.9 °C 3.3 °C 1014.8 hPa ENE 4.8 km/h 6.4 km/h 78 % 0.0 mm
22:02 6.9 °C 3.3 °C 1014.8 hPa NE 1.6 km/h 6.4 km/h 78 % 0.0 mm
22:07 6.8 °C 3.2 °C 1014.8 hPa ENE 1.6 km/h 8.0 km/h 78 % 0.0 mm
22:12 6.9 °C 3.3 °C 1014.8 hPa East 6.4 km/h 8.0 km/h 78 % 0.0 mm
22:17 6.9 °C 3.3 °C 1014.4 hPa ENE 4.8 km/h 8.0 km/h 78 % 0.0 mm
22:27 6.8 °C 3.4 °C 1014.8 hPa ENE 4.8 km/h 6.4 km/h 79 % 0.0 mm
22:32 6.8 °C 3.4 °C 1014.4 hPa NE 1.6 km/h 6.4 km/h 79 % 0.0 mm
22:37 6.7 °C 3.3 °C 1014.8 hPa Calm   8.0 km/h 79 % 0.0 mm
22:42 6.6 °C 3.4 °C 1014.4 hPa Calm   8.0 km/h 80 % 0.0 mm
22:47 6.5 °C 3.3 °C 1014.4 hPa NE 1.6 km/h 8.0 km/h 80 % 0.0 mm
22:52 6.4 °C 3.2 °C 1014.8 hPa Calm   8.0 km/h 80 % 0.0 mm
22:57 6.4 °C 3.2 °C 1014.8 hPa Calm   8.0 km/h 80 % 0.0 mm
23:02 6.4 °C 3.2 °C 1014.8 hPa Calm   8.0 km/h 80 % 0.0 mm
23:07 6.3 °C 3.3 °C 1014.8 hPa ENE 3.2 km/h 4.8 km/h 81 % 0.0 mm
23:12 6.1 °C 3.1 °C 1014.8 hPa Calm   4.8 km/h 81 % 0.0 mm
23:17 5.8 °C 3.1 °C 1014.8 hPa ENE 6.4 km/h 8.0 km/h 83 % 0.0 mm
23:22 5.8 °C 3.1 °C 1014.8 hPa NE 1.6 km/h 8.0 km/h 83 % 0.0 mm
23:27 6.1 °C 3.3 °C 1014.8 hPa Calm   9.7 km/h 82 % 0.0 mm
23:32 6.2 °C 3.4 °C 1014.8 hPa Calm   9.7 km/h 82 % 0.0 mm
23:37 6.3 °C 3.3 °C 1014.8 hPa NE 1.6 km/h 9.7 km/h 81 % 0.0 mm
23:42 6.4 °C 3.4 °C 1014.8 hPa NE 1.6 km/h 9.7 km/h 81 % 0.0 mm
23:47 6.4 °C 3.4 °C 1014.8 hPa ENE 1.6 km/h 6.4 km/h 81 % 0.0 mm
23:52 6.4 °C 3.4 °C 1014.8 hPa Calm   6.4 km/h 81 % 0.0 mm
23:57 6.4 °C 3.6 °C 1014.8 hPa Calm   6.4 km/h 82 % 0.0 mm
Meteo18
Compliments of Weather Underground - 4 mb

Script developed by  Jim McMurry - jmcmurry@mwt.net Adapted for the template by  Wim van der Kuil - Leuven-Template.eu

You find our weather info also at:

European Weather Network

Weather Underground

Equipment we use:

Weather-station
Davis Vue

Weather-program
Meteohub

Weather-server
Raspberry PI 2 B+

Provider
1 and 1

Davis Vue

Meteohub

Raspberry PI 2 B+

1 and 1